sat.trackr.live / text

‹ back to catalog

PIAST-S1

NORAD 66749 · 2025-276CM

PAYLOAD ACTIVE UNKNOWN

§ Identity

Operator
Country
POL
Launch date
2025-11-28
Launch site
AFWTR
Launch vehicle
Mass (kg)
RCS (m²)

External: N2YO · Heavens-Above · Gunter

§ Orbital elements

Epoch: 2026-09-20T22:50:39.286176Z

Period
94.67 min
Inclination
97.4111°
Eccentricity
0.0002581
Mean motion
15.21114646 rev/d
Perigee alt
500.7 km
Apogee alt
504.3 km
Semi-major
6,880.6 km
B*
1.6476e-4
RAAN
336.0824°
Arg perigee
31.2800°
Mean anomaly
328.8589°
Rev number
4,498

§ Raw data

PIAST-S11 66749U 25276CM  26263.95184359  .00003597  00000+0  16476-3 0  99972 66749  97.4111 336.0824 0002581  31.2800 328.8589 15.21114646 44982

JSON: /api/v1/satellites/66749 · /tle

For live sub-satellite position, see the globe view (requires WebGL).

§ Visibility from observer

Set your observer location to see the next 7 days of passes ≥ 10°. The values pass through the URL so the page stays shareable.

No JS? Fill the form by hand. The geolocation button needs JavaScript.